Temp
12 12 12 11 11 11 11 10 10 10 9 9 9 8 8 8 7 7 7 7 7 6 6 6 6 6 6 5 5 4 3 4
12 12 11 11 11 11 10 10 10 9 9 9 9 8 8 8 7 7 7 6 6 6 6 6 6 6 6 5 5 5 3 3
12 12 11 11 10 10 10 9 9 9 9 9 8 8 8 7 7 7 6 6 6 5 5 5 5 5 6 6 6 5 4 4
12 12 11 11 10 10 9 9 9 8 8 8 8 8 7 7 7 7 6 6 5 4 3 3 4 5 6 6 6 6 6 5
12 11 11 10 10 9 9 8 8 8 8 8 7 7 7 7 7 7 6 5 4 3 2 2 4 3 6 6 6 5 5 5
12 12 10 10 9 9 8 8 8 8 8 8 7 7 7 6 6 5 4 4 4 3 3 1 3 3 5 5 5 6 5 5
10 11 9 9 9 9 8 8 8 8 8 7 7 7 6 5 5 4 4 4 4 3 3 3 2 2 3 5 6 5 5 5
9 9 9 8 9 9 9 9 9 9 8 7 6 6 6 6 6 5 4 4 3 3 3 3 3 3 4 4 4 4 4 4
9 8 9 8 9 9 9 9 8 7 7 7 6 6 6 6 4 5 5 5 4 4 4 3 2 2 2 3 4 4 4 4
8 8 9 8 9 9 9 8 7 7 7 7 6 6 6 6 5 5 5 5 5 6 5 3 3 2 3 3 3 3 4 4
9 9 9 9 9 9 9 8 8 7 7 7 6 6 5 5 5 5 5 5 4 4 2 2 2 2 2 2 3 3 3 4
9 9 8 8 9 9 9 9 8 8 7 7 6 6 5 5 5 6 5 4 3 2 1 2 2 2 2 2 2 2 3 3
9 8 8 8 9 9 8 8 8 7 6 6 6 5 5 5 6 6 6 5 2 1 1 1 1 0 0 1 1 2 1 1
8 8 8 8 8 8 8 8 7 7 6 6 6 5 5 5 5 5 5 4 2 1 1 1 1 0 0 0 1 1 1 1
8 8 8 8 8 8 8 8 7 6 6 5 5 5 5 5 5 4 4 4 3 2 1 1 1 0 0 0 1 1 0 1
8 8 8 9 9 9 8 7 7 6 5 5 5 5 4 4 4 4 4 4 4 3 2 1 1 1 1 1 0 -0 0 0
8 9 9 9 9 8 8 7 6 5 5 5 4 4 4 4 4 3 3 3 3 3 2 1 1 1 0 0 0 0 -0 -1
8 9 9 9 8 8 7 6 5 5 5 4 4 4 3 3 3 2 2 2 2 2 2 2 2 1 1 1 0 0 -0 -1
8 8 8 8 8 7 6 5 5 4 4 4 3 3 3 2 2 2 2 1 1 1 1 1 1 1 0 -0 -0 -1 -1 -1
8 8 8 7 7 5 5 5 4 3 3 3 3 2 2 2 2 1 1 1 0 0 -0 -0 -0 -1 -1 -1 -1 -1 -2 -2
Height
3194 3193 3193 3192 3193 3192 3192 3192 3192 3191 3190 3191 3191 3191 3192 3193 3194 3194 3194 3194 3193 3193 3192 3191 3189 3188 3189 3188 3188 3189 3185 3183
3190 3191 3190 3190 3190 3190 3190 3190 3190 3189 3189 3189 3188 3189 3191 3192 3191 3191 3191 3191 3191 3189 3188 3188 3186 3185 3184 3185 3186 3186 3184 3179
3187 3187 3187 3187 3188 3187 3188 3188 3187 3187 3188 3188 3187 3188 3189 3188 3188 3188 3187 3186 3185 3184 3184 3184 3183 3181 3181 3182 3183 3182 3179 3176
3184 3184 3184 3184 3184 3185 3185 3186 3185 3185 3186 3186 3185 3186 3185 3186 3185 3184 3182 3181 3181 3180 3177 3175 3176 3177 3177 3178 3177 3175 3174 3175
3182 3181 3179 3181 3182 3181 3182 3183 3182 3183 3183 3183 3183 3182 3182 3182 3181 3180 3180 3181 3175 3169 3171 3166 3166 3172 3173 3172 3172 3172 3170 3171
3177 3180 3177 3176 3179 3178 3179 3179 3179 3180 3181 3181 3180 3180 3179 3178 3178 3179 3177 3175 3170 3170 3168 3156 3146 3163 3168 3167 3169 3169 3167 3167
3174 3175 3175 3171 3174 3174 3176 3175 3177 3177 3178 3178 3178 3177 3176 3175 3175 3173 3173 3170 3171 3168 3162 3157 3153 3158 3164 3162 3165 3166 3164 3164
3169 3171 3173 3168 3169 3169 3171 3172 3173 3174 3175 3175 3174 3174 3173 3172 3171 3170 3168 3166 3163 3162 3158 3154 3154 3156 3159 3160 3161 3162 3161 3162
3164 3167 3170 3167 3167 3167 3168 3167 3168 3169 3171 3171 3171 3170 3169 3168 3167 3166 3164 3162 3159 3155 3151 3149 3152 3155 3155 3158 3159 3160 3158 3158
3161 3164 3166 3166 3166 3166 3166 3167 3167 3169 3169 3169 3168 3167 3166 3165 3164 3161 3158 3157 3156 3152 3148 3148 3152 3155 3156 3157 3155 3155 3154 3158
3159 3162 3164 3164 3164 3164 3165 3165 3166 3165 3166 3165 3164 3164 3164 3163 3161 3158 3154 3153 3150 3148 3147 3151 3153 3153 3154 3153 3152 3153 3149 3151
3156 3160 3160 3160 3161 3161 3162 3162 3162 3162 3161 3161 3161 3161 3160 3160 3157 3155 3152 3148 3147 3144 3144 3148 3150 3149 3148 3149 3149 3148 3148 3147
3154 3157 3157 3157 3157 3157 3157 3157 3157 3157 3157 3158 3158 3158 3157 3156 3154 3151 3148 3145 3143 3143 3141 3143 3144 3144 3145 3145 3144 3143 3143 3143
3150 3151 3152 3152 3153 3153 3152 3152 3152 3152 3153 3154 3154 3153 3153 3151 3149 3147 3144 3143 3141 3141 3140 3139 3140 3140 3139 3139 3137 3138 3137 3135
3146 3146 3147 3148 3148 3148 3147 3147 3147 3148 3148 3149 3149 3149 3148 3148 3146 3144 3142 3140 3138 3136 3136 3134 3134 3134 3133 3132 3129 3128 3129 3128
3141 3142 3143 3143 3143 3142 3142 3143 3143 3143 3144 3145 3145 3145 3144 3143 3141 3140 3139 3137 3136 3134 3133 3131 3129 3129 3127 3125 3124 3123 3121 3121
3137 3138 3139 3139 3138 3138 3138 3138 3139 3140 3141 3140 3140 3140 3139 3139 3138 3137 3136 3135 3133 3132 3130 3128 3126 3125 3123 3122 3120 3118 3116 3114
3134 3135 3135 3134 3133 3133 3133 3134 3135 3136 3136 3136 3135 3135 3135 3134 3134 3134 3133 3132 3130 3128 3125 3124 3121 3118 3116 3114 3112 3110 3109 3108
3130 3130 3130 3129 3129 3129 3130 3131 3132 3132 3132 3132 3132 3131 3131 3132 3130 3129 3128 3127 3125 3123 3121 3118 3116 3113 3111 3109 3107 3105 3102 3101
3125 3125 3125 3125 3125 3126 3126 3126 3127 3128 3127 3127 3128 3128 3127 3126 3124 3122 3121 3119 3117 3115 3113 3112 3110 3108 3106 3104 3102 3099 3097 3096
Wind_Speed
14 13 12 14 12 13 12 11 12 12 13 13 12 12 11 11 11 11 12 12 12 13 12 12 12 11 11 9 6 6 7 12
15 16 16 16 15 14 13 13 14 15 14 14 15 13 12 13 13 14 14 15 16 15 16 15 15 15 15 14 10 9 10 15
17 17 18 19 17 16 14 14 15 16 15 15 16 16 15 16 16 17 17 18 18 19 18 19 18 19 18 15 12 12 16 18
17 18 20 20 19 17 15 14 16 15 15 16 16 16 17 18 19 20 22 24 30 29 24 21 19 21 18 14 13 15 14 17
11 15 20 20 19 18 15 15 16 16 15 15 16 18 19 21 24 25 24 29 31 43 21 32 13 18 18 16 17 16 15 17
22 14 17 20 18 17 15 16 17 16 13 13 15 18 20 21 23 22 22 37 40 38 41 30 10 14 18 18 17 18 19 19
23 24 18 17 15 17 17 19 17 17 11 13 14 16 16 18 19 20 28 30 35 26 34 38 14 10 17 17 14 16 16 18
21 25 17 16 14 16 17 18 17 16 13 14 15 14 16 18 21 21 31 28 32 35 41 29 23 17 13 15 13 15 14 18
28 25 17 16 14 15 15 18 18 16 16 17 17 19 19 20 21 27 30 31 31 30 18 13 15 11 15 15 10 14 12 15
29 26 17 13 11 12 14 15 16 16 17 18 20 19 20 20 23 28 29 25 24 18 11 10 14 11 14 15 9 8 6 16
27 19 11 12 13 13 13 14 16 17 18 21 21 20 19 20 25 23 21 23 11 10 7 9 12 11 13 15 12 14 8 13
28 19 15 13 12 13 13 14 15 16 19 21 21 19 19 20 18 19 21 18 13 6 11 13 15 17 17 19 17 17 23 23
22 17 15 16 16 16 15 15 16 17 20 19 19 19 17 18 16 17 17 16 10 11 15 21 21 16 15 21 25 26 19 21
22 22 21 21 20 21 20 20 20 19 18 18 18 15 16 16 16 15 15 13 10 9 14 17 18 20 23 29 31 32 32 33
18 18 18 17 19 19 20 18 18 17 17 16 13 13 14 13 10 10 10 11 10 9 11 16 16 17 23 25 27 31 30 26
17 16 15 14 15 17 17 17 16 16 15 13 12 11 10 11 10 10 11 12 13 12 13 16 18 19 21 22 23 27 30 31
15 14 13 13 13 13 15 15 15 14 11 12 11 10 11 11 12 13 14 16 17 19 20 22 23 24 25 26 28 30 32 33
13 12 10 10 10 11 13 13 13 12 11 12 12 12 13 13 15 16 17 19 21 23 24 24 27 26 26 27 29 30 31 31
13 11 11 10 9 10 12 13 13 11 12 14 14 15 16 17 18 20 21 21 21 22 22 23 24 25 27 27 27 28 30 31
15 13 12 9 9 10 13 14 15 13 15 14 15 18 19 17 20 22 21 20 20 21 21 21 22 22 24 25 24 24 25 23
Wind_Direction
263 268 280 279 285 285 292 293 290 286 280 280 281 278 283 287 286 284 278 277 277 280 281 278 275 274 275 262 246 248 252 263
267 265 270 275 279 283 291 294 291 287 290 293 287 289 291 291 286 281 276 273 273 270 271 273 271 267 266 265 260 251 242 247
270 270 268 270 273 278 286 292 293 292 299 296 294 296 296 291 288 285 280 273 265 269 265 264 265 267 270 272 275 262 250 258
270 268 269 268 268 272 280 288 292 296 297 300 300 297 293 290 289 285 280 279 265 258 255 250 256 261 266 265 259 253 257 264
291 281 270 268 264 265 273 282 288 290 298 302 298 293 292 292 289 290 300 307 293 302 286 262 240 262 262 261 265 269 267 279
303 296 290 269 262 261 266 274 279 290 298 301 306 311 316 323 317 315 304 314 295 299 302 263 205 235 262 269 278 274 272 273
287 294 304 281 260 258 260 267 276 283 307 311 313 314 315 315 312 303 309 323 305 293 307 315 282 251 267 268 266 266 273 272
276 283 300 284 270 268 279 284 289 291 316 312 309 310 306 309 309 318 324 316 317 295 296 306 283 253 277 259 259 272 275 280
269 275 282 280 274 290 293 291 295 305 310 310 303 304 307 311 305 317 320 319 315 309 297 296 250 239 248 266 274 275 284 286
261 271 280 277 282 282 285 284 287 285 292 293 295 298 305 306 309 313 313 317 313 313 308 267 236 244 254 269 266 263 299 313
262 270 273 270 270 271 274 278 278 282 284 285 287 294 302 309 316 311 311 317 315 329 307 249 261 271 267 264 258 282 290 279
256 273 271 262 264 265 266 269 271 273 272 279 285 295 299 306 307 302 308 316 321 326 267 264 270 279 279 277 281 288 284 282
259 261 254 256 264 267 265 265 265 263 265 276 285 291 298 300 298 298 306 310 329 327 307 292 285 280 278 278 281 282 289 295
252 256 256 259 261 262 264 266 261 262 267 274 283 289 295 290 289 304 312 305 305 290 279 294 284 291 287 278 277 275 280 289
239 245 249 253 256 259 261 261 257 257 264 272 272 278 285 284 289 309 327 336 330 311 296 295 295 297 296 290 293 286 290 293
232 237 240 243 249 254 260 257 254 254 263 262 263 275 281 274 276 293 303 307 307 297 290 290 292 292 290 293 292 293 295 294
224 228 236 246 254 257 251 251 249 257 250 254 266 274 267 268 273 282 289 291 289 288 291 295 297 297 297 296 295 295 296 294
223 234 241 251 256 259 260 251 249 243 251 258 265 268 269 273 282 292 293 290 289 295 297 297 301 301 302 299 296 293 289 285
230 241 253 259 261 269 264 248 241 249 264 266 266 270 277 285 288 290 293 294 290 285 288 288 294 298 303 308 308 300 292 287
237 249 259 263 265 257 249 249 255 258 266 265 276 276 276 281 289 290 292 291 293 299 297 299 303 304 305 305 305 301 298 294